[[{"header":{"parameterUnit":"m.s-1","parameterCategory":2,"la1":30.2991,"la2":30.254,"lo1":-89.0895,"lo2":-89.0444,"dy":0.0017,"dx":0.0017,"nx":28,"ny":28,"refTime":"2024-07-10T21:00:00:Z","depth":"0","parameterNumber":2,"parameterNumberName":"U-component_of_CURRENTS"},"data":[0,0,0,0,0,0,0,0,0,0,0,0,0,0,0,0,0,0,0,0,0,0,0,0,0,0,0,0,0,0,0,0,0,0,0,0,0,0,0,0,0,0,0,0,0,0,0,0,0,0,0,0,0,0,0,0,0,0,-0.3246,-0.3245,0,-0.3203,-0.3202,-0.3201,-0.3121,-0.312,-0.3118,-0.3117,-0.3002,-0.3,-0.2998,0,0,0,0,0,0,0,0,0,0,0,0,0,-0.3219,-0.322,-0.3246,-0.3245,-0.3245,-0.3203,-0.3202,-0.3201,-0.3121,-0.312,-0.3118,-0.3117,-0.3003,-0.3,-0.2998,0,0,0,0,0,0,0,0,0,0,0,0,0,-0.3205,-0.322,-0.3246,-0.3204,-0.32,-0.3203,-0.3202,-0.3201,-0.3121,-0.312,-0.3118,-0.3116,-0.3004,-0.3001,-0.2998,-0.3014,0,0,-0.2989,-0.2987,0,0,0,0,0,0,0,0,-0.3205,-0.3205,-0.321,-0.3207,-0.3202,-0.317,-0.3151,-0.3136,-0.3122,-0.3146,-0.3117,-0.3115,-0.3056,-0.3048,-0.3039,-0.3008,-0.3003,-0.2988,-0.2986,-0.2985,-0.2984,0,0,0,0,0,0,0,-0.3207,-0.3206,-0.3224,-0.321,-0.3206,-0.3174,-0.317,-0.3147,-0.3106,-0.3144,-0.3139,-0.3142,-0.3052,-0.3042,-0.3035,-0.3001,-0.2988,-0.2986,-0.2984,-0.2983,-0.3033,-0.3036,0,0,0,0,0,0,-0.3225,-0.3208,-0.3225,-0.3223,-0.3205,-0.3177,-0.3172,-0.3178,-0.3108,-0.3097,-0.3144,-0.3139,-0.3048,-0.3039,-0.3031,-0.3083,-0.2985,-0.2982,-0.2981,-0.3029,-0.3033,-0.3037,0,0,0,0,0,0,-0.3225,-0.3228,-0.3227,-0.3218,-0.3216,-0.318,-0.3187,-0.3178,-0.3169,-0.3109,-0.3096,-0.3145,-0.3046,-0.3035,-0.304,-0.3076,-0.2981,-0.2978,-0.3026,-0.3031,-0.3035,-0.3163,0,0,0,0,0,0,-0.3225,-0.3228,-0.3239,-0.3219,-0.3217,-0.3252,-0.3189,-0.3179,-0.3176,-0.3169,-0.3106,-0.3093,-0.3044,-0.3046,-0.3038,-0.307,-0.2976,-0.3022,-0.3028,-0.3033,-0.3155,-0.3171,-0.3185,0,0,0,0,0,-0.3224,-0.3255,-0.324,-0.3242,-0.3234,-0.3255,-0.3252,-0.3215,-0.3178,-0.3195,-0.3159,-0.3095,-0.3077,-0.3046,-0.3036,-0.3068,-0.3019,-0.3026,-0.3033,-0.3148,-0.3168,-0.3185,0,0,0,0,0,0,-0.3251,-0.325,-0.3232,-0.3261,-0.3267,-0.3243,-0.325,-0.3229,-0.3213,-0.3195,-0.3132,-0.3119,-0.313,-0.3098,-0.3066,-0.3105,-0.3039,-0.3044,-0.313,-0.3148,-0.3163,-0.3138,-0.2973,0,0,0,0,0,-0.3265,-0.3281,-0.328,-0.3303,-0.3306,-0.3279,-0.328,-0.3261,-0.3246,-0.3235,-0.3197,-0.3166,-0.3154,-0.315,-0.3124,-0.3153,-0.3078,-0.3172,-0.3187,-0.32,-0.3178,-0.3119,-0.3125,-0.306,-0.306,-0.306,0,0,-0.3281,-0.3283,-0.3291,-0.3309,-0.3298,-0.3319,-0.3274,-0.3286,-0.3304,-0.3226,-0.3236,-0.3208,-0.3172,-0.3196,-0.32,-0.3174,-0.3187,-0.3209,-0.322,-0.3189,-0.3127,-0.3132,-0.3137,-0.3065,-0.3064,-0.3063,0,0,-0.3321,-0.3322,-0.3346,-0.3359,-0.3363,-0.3354,-0.3366,-0.3356,-0.3351,-0.3373,-0.332,-0.3332,-0.3305,-0.3301,-0.3291,-0.3385,-0.326,-0.3375,-0.3439,-0.3385,-0.3388,-0.339,-0.332,-0.3314,-0.3395,-0.3396,-0.3396,0,-0.3342,-0.3356,-0.336,-0.3387,-0.3394,-0.3376,-0.3401,-0.3411,-0.3409,-0.3416,-0.3391,-0.337,-0.3358,-0.338,-0.342,-0.3417,-0.3341,-0.3369,-0.34,-0.34,-0.34,-0.3327,-0.3319,-0.3403,-0.3402,-0.3401,-0.34,0,-0.339,-0.3403,-0.342,-0.3439,-0.3467,-0.3482,-0.3501,-0.3528,-0.3516,-0.3513,-0.3527,-0.3511,-0.3492,-0.3515,-0.3494,-0.3504,-0.3436,-0.3413,-0.3342,-0.3413,-0.3334,-0.3323,-0.3413,-0.341,-0.3408,-0.3406,0,0,-0.3389,-0.3443,-0.3436,-0.3435,-0.3484,-0.349,-0.3566,-0.36,-0.3594,-0.3626,-0.3606,-0.3659,-0.3623,-0.361,-0.3589,-0.3567,-0.3537,-0.3493,-0.3487,-0.3403,-0.3377,-0.3076,-0.3035,-0.3494,-0.3493,-0.3492,-0.3327,0,-0.3401,-0.3428,-0.3483,-0.3503,-0.3496,-0.3553,-0.361,-0.3652,-0.3652,-0.3634,-0.3656,-0.362,-0.3667,-0.3627,-0.3632,-0.3536,-0.351,-0.3581,-0.3336,-0.3328,-0.3035,-0.3013,-0.2856,-0.267,-0.3315,-0.3313,-0.3312,0,-0.3383,-0.3397,-0.3416,-0.3471,-0.3482,-0.3515,-0.3548,-0.3602,-0.3632,-0.3637,-0.3647,-0.3609,-0.3623,-0.3604,-0.3535,-0.3562,-0.3481,-0.3416,-0.3407,-0.306,-0.3005,-0.2702,-0.2625,-0.2651,-0.3294,-0.3296,-0.3297,0,-0.3254,-0.3333,-0.3327,-0.3344,-0.3429,-0.3463,-0.3514,-0.3574,-0.3567,-0.359,-0.3538,-0.3578,-0.3496,-0.3476,-0.3362,-0.3442,-0.3183,-0.3289,-0.2951,-0.2931,-0.271,-0.2667,-0.2599,-0.3198,-0.3199,-0.3199,-0.32,0,-0.3184,-0.3177,-0.3253,-0.3227,-0.3218,-0.3349,-0.3321,-0.3402,-0.3428,-0.3341,-0.3487,-0.3354,-0.3439,-0.33,-0.329,-0.3021,-0.3135,-0.2914,-0.2846,-0.275,-0.2716,-0.2654,-0.2716,-0.3193,-0.3194,-0.3195,-0.3197,0,-0.3027,-0.3081,-0.3049,-0.3121,-0.3128,-0.3109,-0.3156,-0.3119,-0.3227,-0.3096,-0.3089,-0.3128,-0.2975,-0.298,-0.2857,-0.2828,-0.259,-0.2539,-0.2395,-0.231,-0.2073,-0.2148,-0.1913,-0.1873,-0.2221,-0.2212,-0.2204,0,-0.2966,-0.2916,-0.2897,-0.2835,-0.2853,-0.2845,-0.281,-0.2952,-0.2893,-0.2886,-0.2766,-0.2651,-0.247,-0.2225,-0.2135,-0.2016,-0.2154,-0.1812,-0.1958,-0.197,-0.201,-0.2107,-0.2105,-0.1761,-0.1751,-0.1742,-0.1735,0,-0.2815,-0.2778,-0.2731,-0.2584,-0.2511,-0.2433,-0.2404,-0.235,-0.2454,-0.2401,-0.2236,-0.2114,-0.1857,-0.1624,-0.1453,-0.1412,-0.1763,-0.1624,-0.17,-0.1649,-0.1689,-0.1645,-0.1979,-0.1659,-0.1667,-0.1673,-0.1677,-0.168,-0.2668,-0.2574,-0.246,-0.2317,-0.219,-0.2016,-0.192,-0.1896,-0.1798,-0.1695,-0.1692,-0.1459,-0.131,-0.1045,-0.0979,-0.0884,-0.1088,-0.0984,-0.108,-0.1183,-0.1103,-0.1208,-0.0757,-0.0759,-0.0761,-0.0763,-0.0764,0,-0.2487,-0.2376,-0.221,-0.1994,-0.1769,-0.1779,-0.1624,-0.1522,-0.1354,-0.1238,-0.1099,-0.0805,-0.0605,-0.0566,-0.0453,-0.0427,-0.0562,-0.0494,-0.0722,-0.0757,-0.0887,-0.0826,-0.0287,-0.0287,-0.0287,-0.0287,-0.0287,-0.0287,-0.2371,-0.2173,-0.2068,-0.1642,-0.1475,-0.1169,-0.1056,-0.0917,-0.0811,-0.0539,-0.0337,-0.0229,-0.0239,-0.0295,-0.0301,-0.0301,-0.0465,-0.0341,-0.0493,-0.0732,-0.0794,-0.0852,-0.0812,-0.0279,-0.0279,-0.035,-0.035,-0.0351]},{"header":{"parameterUnit":"m.s-1","parameterCategory":2,"la1":30.2991,"la2":30.254,"lo1":-89.0895,"lo2":-89.0444,"dy":0.0017,"dx":0.0017,"nx":28,"ny":28,"refTime":"2024-07-10T21:00:00:Z","depth":"0","parameterNumber":3,"parameterNumberName":"V-component_of_CURRENTS"},"data":[0,0,0,0,0,0,0,0,0,0,0,0,0,0,0,0,0,0,0,0,0,0,0,0,0,0,0,0,0,0,0,0,0,0,0,0,0,0,0,0,0,0,0,0,0,0,0,0,0,0,0,0,0,0,0,0,0,0,0.0399,0.04,0,0.0539,0.0541,0.0542,0.0597,0.0597,0.0596,0.0596,0.0728,0.0731,0.0735,0,0,0,0,0,0,0,0,0,0,0,0,0,0.0184,0.0188,0.0398,0.04,0.0402,0.0539,0.0541,0.0543,0.0597,0.0597,0.0596,0.0596,0.0726,0.0731,0.0735,0,0,0,0,0,0,0,0,0,0,0,0,0,0.0295,0.0189,0.0398,0.0447,0.0452,0.0539,0.0541,0.0543,0.0597,0.0597,0.0596,0.0596,0.0725,0.0731,0.0736,0.078,0,0,0.0753,0.0756,0,0,0,0,0,0,0,0,0.0289,0.0303,0.0438,0.0443,0.045,0.0551,0.0514,0.0622,0.0597,0.0541,0.0596,0.0596,0.0669,0.0679,0.0705,0.0786,0.0792,0.0754,0.0757,0.076,0.0761,0,0,0,0,0,0,0,0.0281,0.0297,0.0453,0.044,0.0447,0.0464,0.0479,0.0535,0.0605,0.0546,0.0551,0.0568,0.0672,0.07,0.0709,0.0794,0.0754,0.0759,0.0762,0.0765,0.0923,0.0924,0,0,0,0,0,0,0.0267,0.029,0.0449,0.0458,0.0368,0.0468,0.0485,0.0518,0.0605,0.0618,0.0568,0.057,0.069,0.0702,0.0714,0.075,0.076,0.0765,0.0768,0.0922,0.0923,0.0924,0,0,0,0,0,0,0.0262,0.028,0.0443,0.0376,0.0399,0.0472,0.0509,0.0521,0.0548,0.0622,0.0634,0.0581,0.069,0.0706,0.0761,0.0756,0.0768,0.0773,0.0922,0.0923,0.0924,0.0837,0,0,0,0,0,0,0.0255,0.0278,0.0296,0.0376,0.0402,0.0486,0.051,0.0524,0.056,0.0563,0.0638,0.065,0.0691,0.0752,0.0766,0.0764,0.0777,0.092,0.0922,0.0923,0.0839,0.0835,0.0832,0,0,0,0,0,0.0247,0.0277,0.0296,0.0315,0.0425,0.0486,0.05,0.0549,0.056,0.0571,0.0622,0.0647,0.0772,0.0757,0.0774,0.0773,0.092,0.0922,0.0923,0.084,0.0835,0.0832,0,0,0,0,0,0,0.0209,0.0288,0.031,0.0367,0.0415,0.0495,0.0513,0.0546,0.0597,0.0597,0.066,0.0676,0.0722,0.0768,0.075,0.0827,0.085,0.0855,0.0781,0.0777,0.0773,0.0741,0.0782,0,0,0,0,0,0.0205,0.0236,0.0314,0.0355,0.0376,0.0441,0.0471,0.0504,0.056,0.0582,0.0634,0.0693,0.0746,0.0774,0.0829,0.0873,0.0883,0.0886,0.0882,0.0879,0.0866,0.0843,0.0835,0.093,0.093,0.093,0,0,0.0199,0.0248,0.0266,0.0346,0.0385,0.041,0.0458,0.0498,0.0519,0.0589,0.0628,0.0683,0.0756,0.0801,0.0826,0.0836,0.0867,0.0881,0.0877,0.0866,0.0844,0.0834,0.0825,0.0932,0.0931,0.0931,0,0,0.0186,0.0245,0.0254,0.029,0.0347,0.0389,0.0395,0.0468,0.0498,0.055,0.06,0.0649,0.0738,0.0781,0.0817,0.0832,0.0847,0.0853,0.0807,0.0785,0.0775,0.0767,0.0794,0.0789,0.085,0.085,0.085,0,0.017,0.0201,0.0265,0.0279,0.0298,0.0371,0.0373,0.0424,0.0504,0.0513,0.055,0.0652,0.0727,0.0759,0.0778,0.082,0.0818,0.081,0.0774,0.0766,0.0758,0.0788,0.0783,0.0846,0.0847,0.0847,0.0847,0,0.0154,0.0178,0.0185,0.0221,0.0254,0.027,0.0339,0.0366,0.041,0.0453,0.0495,0.0592,0.0642,0.0685,0.0748,0.074,0.076,0.0764,0.0769,0.0742,0.0778,0.0774,0.0841,0.0842,0.0843,0.0844,0,0,0.0095,0.0158,0.0152,0.0144,0.0218,0.0229,0.0266,0.03,0.0285,0.0379,0.0363,0.0493,0.0527,0.0572,0.0643,0.0651,0.0639,0.0686,0.0687,0.0687,0.0607,0.0685,0.0689,0.0611,0.061,0.0608,0.0661,0,0.0046,0.004,0.0095,0.0075,0.007,0.014,0.0154,0.0196,0.0241,0.0248,0.0345,0.0372,0.0489,0.0502,0.0531,0.0601,0.062,0.0626,0.0657,0.0659,0.0706,0.0683,0.069,0.0741,0.0658,0.0657,0.0657,0,-0.0022,-0.0011,-0.0035,-0.0029,-0.0029,-0.0026,-0.0031,-0.0003,0.0045,0.0082,0.0129,0.0196,0.0267,0.0347,0.0445,0.0432,0.0519,0.0579,0.0581,0.0674,0.0728,0.0753,0.0738,0.0813,0.0652,0.0652,0.0653,0,-0.0146,-0.0128,-0.0159,-0.0149,-0.0107,-0.0123,-0.0111,-0.0074,-0.0069,-0.0035,-0.0037,0.0042,0.0096,0.0174,0.038,0.0375,0.0478,0.0479,0.0633,0.0642,0.0668,0.0681,0.0703,0.052,0.052,0.052,0.052,0,-0.0241,-0.0267,-0.0227,-0.0243,-0.03,-0.024,-0.0298,-0.0266,-0.024,-0.0241,-0.0138,-0.0105,0.0048,0.0157,0.0304,0.0486,0.0424,0.0621,0.0646,0.0647,0.0657,0.0743,0.0771,0.0522,0.0522,0.0521,0.0521,0,-0.0355,-0.0327,-0.0362,-0.0348,-0.0355,-0.0398,-0.0395,-0.0426,-0.0387,-0.0387,-0.0376,-0.023,-0.0066,0.0118,0.0285,0.0411,0.0613,0.0642,0.0674,0.0702,0.0877,0.09,0.0942,0.1023,0.076,0.0762,0.0763,0,-0.0387,-0.0419,-0.045,-0.048,-0.0471,-0.0515,-0.0536,-0.05,-0.0504,-0.0433,-0.0428,-0.0277,-0.0106,0.0187,0.0406,0.0642,0.0733,0.0783,0.0777,0.0885,0.0928,0.0927,0.0992,0.0793,0.0795,0.0796,0.0798,0,-0.0442,-0.0472,-0.0511,-0.0582,-0.062,-0.065,-0.0669,-0.0694,-0.0628,-0.0597,-0.0475,-0.0343,-0.0023,0.0275,0.0588,0.0722,0.0819,0.0821,0.089,0.0924,0.096,0.1051,0.08,0.0811,0.0809,0.0808,0.0808,0.0807,-0.0482,-0.0545,-0.0616,-0.0681,-0.0716,-0.0749,-0.078,-0.0763,-0.0746,-0.0598,-0.0461,-0.011,0.0206,0.0652,0.0758,0.098,0.096,0.1049,0.1063,0.1049,0.1133,0.0948,0.1013,0.1013,0.1013,0.1013,0.1013,0,-0.0537,-0.062,-0.0694,-0.0775,-0.0819,-0.081,-0.0829,-0.0816,-0.0767,-0.0479,-0.0272,0.038,0.0627,0.0908,0.1134,0.1215,0.1213,0.1269,0.124,0.1294,0.1088,0.1097,0.1232,0.1232,0.1232,0.1232,0.1232,0.1231,-0.0576,-0.069,-0.0739,-0.0833,-0.0869,-0.0896,-0.0894,-0.0834,-0.0633,-0.0122,0.0434,0.0864,0.1242,0.1264,0.1381,0.1401,0.1491,0.1454,0.1545,0.1369,0.1348,0.1328,0.1343,0.1527,0.1527,0.1737,0.1738,0.174]}],[{"header":{"parameterUnit":"m.s-1","parameterCategory":2,"la1":30.2991,"la2":30.254,"lo1":-89.0895,"lo2":-89.0444,"dy":0.0017,"dx":0.0017,"nx":28,"ny":28,"refTime":"2024-07-10T21:00:00:Z","depth":"2","parameterNumber":2,"parameterNumberName":"U-component_of_CURRENTS"},"data":[0,0,0,0,0,0,0,0,0,0,0,0,0,0,0,0,0,0,0,0,0,0,0,0,0,0,0,0,0,0,0,0,0,0,0,0,0,0,0,0,0,0,0,0,0,0,0,0,0,0,0,0,0,0,0,0,0,0,-0.1798,-0.18,0,-0.191,-0.1911,-0.1911,-0.1945,-0.1946,-0.1947,-0.1947,-0.1901,-0.1899,-0.1897,0,0,0,0,0,0,0,0,0,0,0,0,0,-0.1727,-0.1726,-0.1798,-0.18,-0.1803,-0.191,-0.1911,-0.1911,-0.1945,-0.1946,-0.1947,-0.1947,-0.1901,-0.1899,-0.1897,0,0,0,0,0,0,0,0,0,0,0,0,0,-0.1777,-0.1726,-0.1797,-0.1843,-0.1849,-0.191,-0.1911,-0.1911,-0.1945,-0.1946,-0.1947,-0.1948,-0.1902,-0.19,-0.1897,-0.1859,0,0,-0.1888,-0.1887,0,0,0,0,0,0,0,0,-0.1774,-0.1778,-0.1834,-0.184,-0.1847,-0.1927,-0.187,-0.189,-0.1945,-0.1894,-0.1947,-0.1948,-0.1903,-0.19,-0.1902,-0.1857,-0.1855,-0.1888,-0.1886,-0.1885,-0.1884,0,0,0,0,0,0,0,-0.177,-0.1774,-0.1829,-0.1837,-0.1845,-0.1898,-0.1904,-0.1874,-0.1878,-0.1899,-0.1905,-0.1938,-0.1904,-0.1905,-0.1901,-0.1854,-0.1888,-0.1886,-0.1884,-0.1883,-0.1816,-0.1816,0,0,0,0,0,0,-0.1776,-0.177,-0.1825,-0.1834,-0.1828,-0.1899,-0.1905,-0.1889,-0.1882,-0.1887,-0.1938,-0.194,-0.1909,-0.1904,-0.1899,-0.1894,-0.1885,-0.1882,-0.1881,-0.1816,-0.1816,-0.1816,0,0,0,0,0,0,-0.1773,-0.1778,-0.1821,-0.1818,-0.1829,-0.19,-0.1882,-0.1891,-0.192,-0.1916,-0.1915,-0.1962,-0.191,-0.1903,-0.1893,-0.189,-0.1881,-0.1879,-0.1816,-0.1816,-0.1816,-0.1856,0,0,0,0,0,0,-0.1769,-0.1774,-0.1754,-0.1817,-0.183,-0.1885,-0.1883,-0.1893,-0.1944,-0.1948,-0.1935,-0.1931,-0.191,-0.1897,-0.189,-0.1886,-0.1877,-0.1816,-0.1816,-0.1816,-0.1855,-0.1857,-0.1859,0,0,0,0,0,-0.1765,-0.1748,-0.175,-0.1759,-0.1801,-0.1888,-0.1899,-0.1945,-0.1945,-0.1968,-0.195,-0.1933,-0.1891,-0.1895,-0.1887,-0.1882,-0.1816,-0.1816,-0.1816,-0.1854,-0.1857,-0.1859,0,0,0,0,0,0,-0.1714,-0.1754,-0.1757,-0.1751,-0.1827,-0.19,-0.1931,-0.1956,-0.1961,-0.1961,-0.1933,-0.1927,-0.1915,-0.1893,-0.1898,-0.1862,-0.185,-0.1848,-0.1881,-0.1884,-0.1886,-0.1881,-0.1874,0,0,0,0,0,-0.169,-0.167,-0.1754,-0.1747,-0.1795,-0.186,-0.1896,-0.1938,-0.1966,-0.1972,-0.1962,-0.1936,-0.1902,-0.1892,-0.1868,-0.1848,-0.1863,-0.1838,-0.1841,-0.1843,-0.1833,-0.1892,-0.19,-0.1815,-0.1815,-0.1815,0,0,-0.1652,-0.1687,-0.1665,-0.1734,-0.1791,-0.1829,-0.1882,-0.1961,-0.1971,-0.196,-0.1955,-0.1948,-0.19,-0.1881,-0.1873,-0.1866,-0.1873,-0.1843,-0.1845,-0.1833,-0.1893,-0.1902,-0.1909,-0.1815,-0.1815,-0.1815,0,0,-0.1613,-0.1626,-0.1615,-0.1696,-0.181,-0.1831,-0.1861,-0.1952,-0.1981,-0.1998,-0.1973,-0.1966,-0.1938,-0.1897,-0.1868,-0.1864,-0.1886,-0.1867,-0.187,-0.193,-0.1938,-0.1945,-0.1974,-0.1984,-0.1866,-0.1866,-0.1866,0,-0.1633,-0.1575,-0.1635,-0.1699,-0.1752,-0.1826,-0.1863,-0.1893,-0.1958,-0.1961,-0.2005,-0.1967,-0.1933,-0.1877,-0.1878,-0.1866,-0.1913,-0.1866,-0.1936,-0.1943,-0.195,-0.1978,-0.1988,-0.1868,-0.1867,-0.1867,-0.1867,0,-0.1574,-0.1579,-0.161,-0.1657,-0.1713,-0.178,-0.1852,-0.1875,-0.191,-0.1934,-0.1954,-0.1959,-0.1929,-0.1926,-0.1896,-0.1908,-0.1929,-0.1939,-0.1936,-0.1962,-0.1989,-0.1999,-0.187,-0.187,-0.1869,-0.1869,0,0,-0.1619,-0.157,-0.1611,-0.1628,-0.1718,-0.1782,-0.1767,-0.1792,-0.1814,-0.1872,-0.1906,-0.1861,-0.1904,-0.1874,-0.1873,-0.1925,-0.2003,-0.1962,-0.1965,-0.2002,-0.2144,-0.1873,-0.1858,-0.2063,-0.2065,-0.2066,-0.2144,0,-0.1616,-0.1606,-0.1606,-0.1647,-0.1662,-0.1731,-0.172,-0.1752,-0.1798,-0.1848,-0.1867,-0.1908,-0.1873,-0.192,-0.1946,-0.201,-0.2033,-0.198,-0.2102,-0.2104,-0.187,-0.186,-0.1703,-0.1734,-0.2154,-0.2155,-0.2156,0,-0.1633,-0.1605,-0.1584,-0.1619,-0.1655,-0.1682,-0.1727,-0.1746,-0.1776,-0.1836,-0.1861,-0.1916,-0.1943,-0.1974,-0.2051,-0.2041,-0.207,-0.2125,-0.213,-0.1864,-0.1848,-0.1774,-0.1736,-0.2173,-0.2172,-0.217,-0.2169,0,-0.1631,-0.166,-0.1604,-0.164,-0.1649,-0.168,-0.1691,-0.1723,-0.1754,-0.185,-0.1908,-0.1959,-0.2017,-0.2094,-0.2095,-0.2139,-0.2203,-0.2276,-0.2041,-0.2024,-0.1894,-0.1857,-0.2318,-0.2318,-0.2318,-0.2318,-0.2318,0,-0.1667,-0.1673,-0.1607,-0.1627,-0.1619,-0.168,-0.1723,-0.1745,-0.1808,-0.1813,-0.1911,-0.1925,-0.2068,-0.2085,-0.2127,-0.2048,-0.22,-0.2017,-0.2014,-0.1895,-0.186,-0.2243,-0.2233,-0.2321,-0.232,-0.232,-0.2319,0,-0.168,-0.163,-0.1614,-0.1611,-0.1612,-0.1633,-0.1698,-0.1719,-0.1806,-0.1832,-0.1869,-0.1929,-0.1925,-0.1977,-0.2079,-0.2034,-0.2043,-0.1958,-0.1765,-0.1731,-0.1848,-0.184,-0.181,-0.1801,-0.1793,-0.1786,-0.1781,0,-0.1642,-0.1603,-0.1589,-0.1573,-0.1582,-0.1605,-0.1589,-0.1676,-0.1695,-0.1769,-0.1754,-0.1779,-0.1686,-0.1682,-0.1629,-0.1614,-0.1758,-0.1475,-0.1482,-0.179,-0.1793,-0.1796,-0.1798,-0.1372,-0.1364,-0.1357,-0.1352,0,-0.1569,-0.1576,-0.1548,-0.1497,-0.1503,-0.1487,-0.1493,-0.1506,-0.1579,-0.1602,-0.1557,-0.1511,-0.14,-0.1245,-0.1162,-0.1158,-0.1478,-0.1325,-0.1744,-0.1456,-0.1363,-0.137,-0.139,-0.1291,-0.1297,-0.1301,-0.1305,-0.1307,-0.1498,-0.1457,-0.1426,-0.1397,-0.1389,-0.135,-0.1313,-0.1333,-0.132,-0.1303,-0.13,-0.1182,-0.1121,-0.0874,-0.0801,-0.0793,-0.0931,-0.0998,-0.1028,-0.1064,-0.0929,-0.0819,-0.0622,-0.0624,-0.0626,-0.0628,-0.0629,0,-0.1333,-0.1319,-0.13,-0.1254,-0.1221,-0.1252,-0.1209,-0.1158,-0.1084,-0.105,-0.0978,-0.0799,-0.0613,-0.0586,-0.0428,-0.0394,-0.0516,-0.043,-0.0611,-0.0665,-0.0715,-0.0574,-0.0169,-0.0168,-0.0168,-0.0167,0,0,-0.1217,-0.1168,-0.1166,-0.1084,-0.106,-0.0946,-0.0891,-0.0842,-0.08,-0.0699,-0.0619,-0.0594,-0.0538,-0.0365,-0.0292,-0.0197,-0.0461,-0.0194,-0.055,-0.0813,-0.0864,-0.1004,-0.0836,0,0,0,0,0]},{"header":{"parameterUnit":"m.s-1","parameterCategory":2,"la1":30.2991,"la2":30.254,"lo1":-89.0895,"lo2":-89.0444,"dy":0.0017,"dx":0.0017,"nx":28,"ny":28,"refTime":"2024-07-10T21:00:00:Z","depth":"2","parameterNumber":3,"parameterNumberName":"V-component_of_CURRENTS"},"data":[0,0,0,0,0,0,0,0,0,0,0,0,0,0,0,0,0,0,0,0,0,0,0,0,0,0,0,0,0,0,0,0,0,0,0,0,0,0,0,0,0,0,0,0,0,0,0,0,0,0,0,0,0,0,0,0,0,0,-0.048,-0.0477,0,-0.0212,-0.0209,-0.0206,-0.0077,-0.0077,-0.0077,-0.0077,0.0098,0.0102,0.0106,0,0,0,0,0,0,0,0,0,0,0,0,0,-0.0635,-0.0635,-0.0481,-0.0477,-0.0473,-0.0212,-0.0209,-0.0206,-0.0077,-0.0077,-0.0077,-0.0077,0.0096,0.0101,0.0107,0,0,0,0,0,0,0,0,0,0,0,0,0,-0.0492,-0.0635,-0.0481,-0.0375,-0.0363,-0.0213,-0.0209,-0.0205,-0.0077,-0.0077,-0.0077,-0.0076,0.0094,0.0101,0.0107,0.0142,0,0,0.0128,0.0131,0,0,0,0,0,0,0,0,-0.05,-0.0487,-0.0395,-0.0382,-0.0368,-0.0175,-0.0199,-0.0092,-0.0078,-0.019,-0.0077,-0.0076,-0.0,0.0014,0.006,0.015,0.0157,0.0128,0.0132,0.0135,0.0137,0,0,0,0,0,0,0,-0.0511,-0.0496,-0.0378,-0.0391,-0.0374,-0.0256,-0.0238,-0.0177,-0.0105,-0.018,-0.0169,-0.0133,0.0006,0.0054,0.0065,0.016,0.0128,0.0134,0.0138,0.0141,0.0317,0.0317,0,0,0,0,0,0,-0.055,-0.0507,-0.0386,-0.0369,-0.0431,-0.0254,-0.0234,-0.024,-0.0103,-0.008,-0.0134,-0.0128,0.0042,0.0057,0.0072,0.0134,0.0135,0.0141,0.0145,0.0316,0.0317,0.0318,0,0,0,0,0,0,-0.0556,-0.0544,-0.0397,-0.0426,-0.0399,-0.0254,-0.026,-0.0235,-0.0176,-0.0066,-0.0046,-0.01,0.0043,0.0062,0.0133,0.0141,0.0144,0.015,0.0315,0.0316,0.0317,0.0249,0,0,0,0,0,0,-0.0562,-0.0549,-0.0568,-0.0431,-0.0399,-0.0313,-0.0259,-0.023,-0.0154,-0.0144,-0.0031,-0.0014,0.0045,0.0123,0.014,0.015,0.0156,0.0314,0.0316,0.0317,0.025,0.0247,0.0245,0,0,0,0,0,-0.0569,-0.0587,-0.0572,-0.0555,-0.0432,-0.0312,-0.0285,-0.018,-0.0153,-0.0127,-0.0052,-0.0017,0.0143,0.0129,0.0149,0.0161,0.0314,0.0315,0.0317,0.0251,0.0248,0.0245,0,0,0,0,0,0,-0.0646,-0.0572,-0.0552,-0.0545,-0.0442,-0.0289,-0.0243,-0.0183,-0.0099,-0.0088,-0.0004,0.0018,0.0089,0.0131,0.0114,0.0216,0.0233,0.0238,0.0176,0.0174,0.0171,0.0117,0.0161,0,0,0,0,0,-0.0682,-0.0695,-0.0575,-0.0571,-0.0518,-0.0387,-0.0326,-0.0254,-0.0155,-0.0115,-0.0036,0.0042,0.0111,0.0144,0.022,0.0268,0.0307,0.0289,0.0286,0.0283,0.0254,0.0333,0.0334,0.0323,0.0323,0.0323,0,0,-0.0713,-0.067,-0.0678,-0.059,-0.0498,-0.044,-0.035,-0.0252,-0.021,-0.0113,-0.0038,0.0044,0.0126,0.0193,0.0225,0.0225,0.031,0.0285,0.0282,0.0253,0.0334,0.0335,0.0336,0.0324,0.0324,0.0323,0,0,-0.075,-0.0735,-0.0739,-0.0662,-0.0535,-0.0466,-0.0446,-0.0293,-0.0228,-0.0138,-0.0064,0.0003,0.0129,0.0174,0.0213,0.0233,0.0302,0.0276,0.0209,0.0287,0.0287,0.0289,0.0343,0.0349,0.0263,0.0262,0.0262,0,-0.0771,-0.0776,-0.0712,-0.0665,-0.0606,-0.0492,-0.0447,-0.0372,-0.0222,-0.0183,-0.0125,0.0042,0.011,0.0159,0.0173,0.0223,0.0282,0.0212,0.0281,0.0283,0.0285,0.0341,0.0349,0.0259,0.026,0.026,0.026,0,-0.08,-0.0783,-0.0759,-0.0705,-0.0646,-0.0575,-0.0468,-0.0416,-0.0331,-0.0251,-0.0146,-0.0032,0.005,0.0097,0.0145,0.0191,0.0233,0.0277,0.028,0.0281,0.0341,0.035,0.0255,0.0256,0.0257,0.0258,0,0,-0.0847,-0.0795,-0.0775,-0.075,-0.0649,-0.059,-0.0558,-0.0476,-0.0445,-0.0312,-0.0253,-0.0136,-0.0071,-0.0026,0.0055,0.0119,0.0192,0.0198,0.0204,0.0234,0.0366,0.0304,0.0309,0.0269,0.027,0.0271,0.0401,0,-0.0856,-0.0818,-0.0791,-0.0748,-0.0706,-0.0631,-0.0609,-0.0539,-0.045,-0.0373,-0.0267,-0.017,-0.0118,-0.0054,0.0006,0.0178,0.0215,0.0152,0.0373,0.0378,0.031,0.0316,0.0318,0.0427,0.0411,0.0412,0.0414,0,-0.0861,-0.0838,-0.0806,-0.076,-0.0732,-0.0716,-0.066,-0.0616,-0.0531,-0.0452,-0.038,-0.0272,-0.0175,-0.0109,0.0098,0.0071,0.0181,0.0298,0.0307,0.027,0.0333,0.0425,0.0446,0.043,0.0429,0.0428,0.0426,0,-0.0896,-0.0834,-0.0823,-0.0793,-0.0739,-0.0729,-0.0711,-0.0645,-0.0606,-0.0505,-0.0456,-0.0324,-0.0223,-0.0066,0.0129,0.0145,0.0369,0.0426,0.0449,0.0447,0.0494,0.0492,0.0522,0.0522,0.0522,0.0522,0.0521,0,-0.0906,-0.0887,-0.0838,-0.0817,-0.0811,-0.076,-0.0745,-0.0708,-0.0648,-0.0607,-0.0505,-0.0432,-0.0197,-0.0048,0.0118,0.03,0.035,0.042,0.0471,0.047,0.0464,0.0502,0.0497,0.0527,0.0525,0.0525,0.0524,0,-0.0959,-0.0914,-0.0885,-0.0833,-0.0824,-0.0817,-0.0792,-0.0777,-0.072,-0.0664,-0.0633,-0.0479,-0.028,-0.009,0.0193,0.0281,0.0471,0.0501,0.0459,0.0499,0.0504,0.0495,0.0572,0.0571,0.057,0.0569,0.0569,0,-0.0984,-0.0982,-0.0912,-0.089,-0.0871,-0.0861,-0.0858,-0.0817,-0.0797,-0.0688,-0.0658,-0.0486,-0.0339,-0.0007,0.0194,0.0427,0.0441,0.0517,0.0514,0.0463,0.0507,0.05,0.0493,0.0576,0.0576,0.0575,0.0575,0,-0.1056,-0.1027,-0.1002,-0.0953,-0.0929,-0.0916,-0.0906,-0.0907,-0.0842,-0.0778,-0.0644,-0.0514,-0.0247,0.002,0.0242,0.0375,0.0485,0.0509,0.0518,0.0524,0.0467,0.0509,0.0503,0.057,0.0571,0.0571,0.0571,0.0571,-0.11,-0.1106,-0.1057,-0.1019,-0.0976,-0.0949,-0.0947,-0.0915,-0.0866,-0.0735,-0.0624,-0.0407,-0.0191,0.0153,0.0309,0.0428,0.0447,0.0519,0.0523,0.0526,0.0464,0.0403,0.0484,0.0484,0.0484,0.0484,0.0484,0,-0.1163,-0.1167,-0.1135,-0.1058,-0.101,-0.0979,-0.0957,-0.0924,-0.0849,-0.0698,-0.0532,-0.0266,-0.0017,0.0168,0.0361,0.0478,0.05,0.0488,0.0525,0.0528,0.0532,0.0471,0.0494,0.0494,0.0494,0.0494,0,0,-0.1188,-0.1203,-0.119,-0.1109,-0.1042,-0.0981,-0.0959,-0.0884,-0.0782,-0.0583,-0.0419,-0.0206,0.0013,0.0156,0.0312,0.0406,0.0427,0.0403,0.0389,0.0419,0.042,0.055,0.0458,0,0,0,0,0]}],[{"header":{"parameterUnit":"m.s-1","parameterCategory":2,"la1":30.2991,"la2":30.254,"lo1":-89.0895,"lo2":-89.0444,"dy":0.0017,"dx":0.0017,"nx":28,"ny":28,"refTime":"2024-07-10T21:00:00:Z","depth":"4","parameterNumber":2,"parameterNumberName":"U-component_of_CURRENTS"},"data":[0,0,0,0,0,0,0,0,0,0,0,0,0,0,0,0,0,0,0,0,0,0,0,0,0,0,0,0,0,0,0,0,0,0,0,0,0,0,0,0,0,0,0,0,0,0,0,0,0,0,0,0,0,0,0,0,0,0,-0.078,-0.078,0,-0.0776,-0.0776,-0.0776,-0.0765,-0.0765,-0.0765,-0.0765,-0.081,-0.0811,-0.0812,0,0,0,0,0,0,0,0,0,0,0,0,0,-0.0738,-0.0738,-0.078,-0.078,-0.078,-0.0776,-0.0776,-0.0776,-0.0765,-0.0765,-0.0765,-0.0765,-0.0809,-0.0811,-0.0812,0,0,0,0,0,0,0,0,0,0,0,0,0,-0.0745,-0.0739,-0.078,-0.0776,-0.0776,-0.0776,-0.0776,-0.0776,-0.0765,-0.0765,-0.0765,-0.0765,-0.0809,-0.0811,-0.0812,-0.0824,0,0,-0.0818,-0.0819,0,0,0,0,0,0,0,0,-0.0745,-0.0746,-0.0776,-0.0776,-0.0776,-0.0773,-0.0778,-0.0795,-0.0765,-0.0766,-0.0765,-0.0765,-0.0804,-0.0806,-0.0801,-0.0827,-0.0828,-0.0818,-0.0819,-0.082,-0.0821,0,0,0,0,0,0,0,-0.0744,-0.0746,-0.0776,-0.0777,-0.0776,-0.0761,-0.0762,-0.078,-0.0784,-0.0766,-0.0766,-0.077,-0.0803,-0.0799,-0.0802,-0.0829,-0.0818,-0.082,-0.0821,-0.0822,-0.0882,-0.0883,0,0,0,0,0,0,-0.0752,-0.0746,-0.0776,-0.0776,-0.0763,-0.0762,-0.0763,-0.0772,-0.0783,-0.0785,-0.077,-0.0769,-0.0796,-0.08,-0.0804,-0.0854,-0.082,-0.0822,-0.0823,-0.0882,-0.0883,-0.0883,0,0,0,0,0,0,-0.0751,-0.0755,-0.0776,-0.0762,-0.0764,-0.0764,-0.0773,-0.0772,-0.0777,-0.0785,-0.0788,-0.0777,-0.0796,-0.0801,-0.0827,-0.0854,-0.0823,-0.0824,-0.0881,-0.0882,-0.0883,-0.0931,0,0,0,0,0,0,-0.075,-0.0755,-0.0764,-0.0763,-0.0766,-0.0786,-0.0773,-0.0772,-0.078,-0.0779,-0.0793,-0.0796,-0.0797,-0.0824,-0.0829,-0.0856,-0.0826,-0.0881,-0.0882,-0.0883,-0.0929,-0.0934,-0.0938,0,0,0,0,0,-0.0748,-0.0759,-0.0764,-0.0768,-0.0779,-0.0787,-0.0786,-0.0783,-0.0781,-0.0787,-0.0794,-0.0796,-0.0834,-0.0826,-0.0832,-0.086,-0.088,-0.0881,-0.0883,-0.0927,-0.0933,-0.0938,0,0,0,0,0,0,-0.073,-0.0759,-0.0765,-0.078,-0.0789,-0.0786,-0.0792,-0.0791,-0.0799,-0.0803,-0.0806,-0.081,-0.0841,-0.0841,-0.0833,-0.0877,-0.0856,-0.0859,-0.0888,-0.0894,-0.0898,-0.0918,-0.0827,0,0,0,0,0,-0.0736,-0.0761,-0.0775,-0.0786,-0.0796,-0.0797,-0.0801,-0.0801,-0.0808,-0.0811,-0.0825,-0.0836,-0.0848,-0.0863,-0.0872,-0.0904,-0.0896,-0.0922,-0.0927,-0.093,-0.0949,-0.0965,-0.0973,-0.0887,-0.0887,-0.0887,0,0,-0.0728,-0.075,-0.0761,-0.0786,-0.0793,-0.0809,-0.0799,-0.0811,-0.0831,-0.0817,-0.0854,-0.0854,-0.0857,-0.0886,-0.0901,-0.0894,-0.0943,-0.0932,-0.0935,-0.0952,-0.0967,-0.0976,-0.0983,-0.0888,-0.0888,-0.0888,0,0,-0.0731,-0.0751,-0.0777,-0.079,-0.0814,-0.082,-0.0829,-0.0842,-0.0859,-0.0887,-0.0881,-0.09,-0.0922,-0.0933,-0.0939,-0.0974,-0.0961,-0.0973,-0.1022,-0.1037,-0.1045,-0.1051,-0.102,-0.1024,-0.0981,-0.0981,-0.0981,0,-0.07,-0.0759,-0.078,-0.0804,-0.0825,-0.083,-0.0856,-0.087,-0.0891,-0.0921,-0.0907,-0.0947,-0.0947,-0.0988,-0.0996,-0.0988,-0.0977,-0.1003,-0.1044,-0.1051,-0.1057,-0.1024,-0.1028,-0.0983,-0.0983,-0.0983,-0.0982,0,-0.0734,-0.0774,-0.0788,-0.0832,-0.0854,-0.0875,-0.0905,-0.0936,-0.0957,-0.0973,-0.1023,-0.102,-0.1047,-0.1045,-0.1032,-0.1079,-0.1048,-0.1044,-0.1035,-0.1069,-0.1031,-0.1034,-0.0987,-0.0986,-0.0985,-0.0985,0,0,-0.0632,-0.0785,-0.0783,-0.0835,-0.0877,-0.0899,-0.095,-0.1004,-0.1047,-0.1067,-0.1122,-0.1137,-0.1138,-0.1144,-0.1133,-0.1147,-0.1162,-0.112,-0.1119,-0.1095,-0.1165,-0.1086,-0.108,-0.1169,-0.117,-0.1172,-0.111,0,-0.0634,-0.0747,-0.0802,-0.0871,-0.0927,-0.0964,-0.1016,-0.1064,-0.11,-0.1151,-0.1167,-0.1198,-0.1175,-0.1185,-0.1201,-0.1174,-0.1178,-0.1177,-0.1132,-0.113,-0.1061,-0.1085,-0.1177,-0.1112,-0.1112,-0.1113,-0.1113,0,-0.0611,-0.0715,-0.083,-0.0952,-0.0973,-0.1007,-0.1104,-0.1145,-0.1212,-0.1244,-0.1282,-0.1281,-0.1305,-0.1275,-0.1266,-0.1267,-0.1228,-0.12,-0.1197,-0.1116,-0.1057,-0.1077,-0.1118,-0.1117,-0.1117,-0.1117,-0.1116,0,-0.0552,-0.0695,-0.0819,-0.0854,-0.0997,-0.1049,-0.1101,-0.1178,-0.1227,-0.1295,-0.1322,-0.1355,-0.1357,-0.1343,-0.1284,-0.1279,-0.1257,-0.1238,-0.1126,-0.1117,-0.1186,-0.118,-0.1239,-0.1239,-0.1239,-0.1239,-0.1239,0,-0.0495,-0.0553,-0.0818,-0.0861,-0.0986,-0.1064,-0.1148,-0.1206,-0.1281,-0.1323,-0.1361,-0.1376,-0.1377,-0.1357,-0.1309,-0.122,-0.1274,-0.114,-0.111,-0.12,-0.1197,-0.1185,-0.118,-0.1237,-0.1237,-0.1238,-0.1238,0,-0.0338,-0.0513,-0.0663,-0.0895,-0.0959,-0.1037,-0.116,-0.1213,-0.1288,-0.1338,-0.1356,-0.1393,-0.1353,-0.1331,-0.1286,-0.1229,-0.1166,-0.1121,-0.1198,-0.1171,-0.1003,-0.1001,-0.0985,-0.0982,-0.098,-0.0977,-0.0976,0,-0.0265,-0.0348,-0.0679,-0.0788,-0.088,-0.1014,-0.1092,-0.1203,-0.1244,-0.1325,-0.1332,-0.1332,-0.1332,-0.1194,-0.1192,-0.1099,-0.108,-0.1044,-0.1049,-0.1012,-0.0984,-0.0986,-0.0987,-0.0972,-0.0971,-0.097,-0.097,0,-0.0102,-0.0257,-0.0402,-0.0673,-0.0812,-0.0976,-0.1081,-0.1109,-0.1215,-0.129,-0.1261,-0.1227,-0.1179,-0.1122,-0.1063,-0.1002,-0.1074,-0.1017,-0.1021,-0.1026,-0.0995,-0.097,-0.0974,-0.0961,-0.0962,-0.0963,-0.0963,0,0.0013,-0.0049,-0.0289,-0.0505,-0.0717,-0.0887,-0.0976,-0.1033,-0.1091,-0.1176,-0.1155,-0.1146,-0.1166,-0.1069,-0.1018,-0.0955,-0.0925,-0.0892,-0.0902,-0.0912,-0.0918,-0.087,-0.0778,0,0,0,0,0,0.0116,0.009,-0.0087,-0.037,-0.0611,-0.0738,-0.094,-0.1027,-0.1127,-0.1075,-0.1113,-0.1057,-0.098,-0.0975,-0.0884,-0.0974,-0.0932,-0.0867,-0.0901,-0.0912,-0.0922,-0.0936,0,0,0,0,0,0,0.0192,0.0111,0.0001,-0.0223,-0.0392,-0.0628,-0.0772,-0.0879,-0.0861,-0.0946,-0.09,-0.0957,-0.0887,-0.0969,-0.0833,-0.0833,-0.0831,-0.0866,-0.0863,-0.0906,-0.0915,-0.0923,-0.0941,0,0,0,0,0]},{"header":{"parameterUnit":"m.s-1","parameterCategory":2,"la1":30.2991,"la2":30.254,"lo1":-89.0895,"lo2":-89.0444,"dy":0.0017,"dx":0.0017,"nx":28,"ny":28,"refTime":"2024-07-10T21:00:00:Z","depth":"4","parameterNumber":3,"parameterNumberName":"V-component_of_CURRENTS"},"data":[0,0,0,0,0,0,0,0,0,0,0,0,0,0,0,0,0,0,0,0,0,0,0,0,0,0,0,0,0,0,0,0,0,0,0,0,0,0,0,0,0,0,0,0,0,0,0,0,0,0,0,0,0,0,0,0,0,0,-0.0563,-0.0562,0,-0.0546,-0.0546,-0.0545,-0.0529,-0.0528,-0.0528,-0.0528,-0.0508,-0.0508,-0.0508,0,0,0,0,0,0,0,0,0,0,0,0,0,-0.0571,-0.0571,-0.0563,-0.0562,-0.0562,-0.0546,-0.0546,-0.0545,-0.0529,-0.0528,-0.0528,-0.0528,-0.0508,-0.0508,-0.0508,0,0,0,0,0,0,0,0,0,0,0,0,0,-0.0562,-0.0571,-0.0563,-0.0552,-0.0551,-0.0546,-0.0546,-0.0545,-0.0529,-0.0528,-0.0528,-0.0528,-0.0508,-0.0508,-0.0508,-0.0511,0,0,-0.0506,-0.0506,0,0,0,0,0,0,0,0,-0.0562,-0.0562,-0.0554,-0.0553,-0.0551,-0.0539,-0.0541,-0.0534,-0.0529,-0.0537,-0.0528,-0.0528,-0.0519,-0.0517,-0.0515,-0.051,-0.0509,-0.0506,-0.0506,-0.0506,-0.0505,0,0,0,0,0,0,0,-0.0563,-0.0562,-0.0556,-0.0554,-0.0552,-0.0545,-0.0543,-0.054,-0.053,-0.0536,-0.0535,-0.0533,-0.0518,-0.0515,-0.0514,-0.0509,-0.0506,-0.0506,-0.0505,-0.0505,-0.0505,-0.0505,0,0,0,0,0,0,-0.0566,-0.0563,-0.0556,-0.0555,-0.0556,-0.0545,-0.0543,-0.0543,-0.053,-0.0527,-0.0534,-0.0533,-0.0516,-0.0515,-0.0513,-0.0506,-0.0506,-0.0505,-0.0505,-0.0505,-0.0505,-0.0506,0,0,0,0,0,0,-0.0566,-0.0566,-0.0557,-0.0559,-0.0557,-0.0545,-0.0545,-0.0543,-0.0546,-0.0528,-0.0525,-0.0539,-0.0516,-0.0514,-0.0514,-0.0505,-0.0505,-0.0504,-0.0505,-0.0505,-0.0505,-0.0498,0,0,0,0,0,0,-0.0567,-0.0566,-0.0574,-0.0559,-0.0557,-0.0562,-0.0546,-0.0543,-0.0545,-0.0544,-0.0532,-0.0529,-0.0516,-0.0515,-0.0513,-0.0505,-0.0504,-0.0504,-0.0505,-0.0505,-0.0498,-0.0498,-0.0498,0,0,0,0,0,-0.0567,-0.058,-0.0575,-0.0574,-0.0566,-0.0562,-0.0561,-0.0551,-0.0546,-0.0551,-0.054,-0.053,-0.0517,-0.0515,-0.0513,-0.0504,-0.0504,-0.0505,-0.0505,-0.0497,-0.0498,-0.0498,0,0,0,0,0,0,-0.059,-0.0579,-0.0573,-0.0583,-0.0576,-0.056,-0.0568,-0.0558,-0.0554,-0.0556,-0.0536,-0.0533,-0.0529,-0.0524,-0.0522,-0.0507,-0.0508,-0.0509,-0.0503,-0.0503,-0.0503,-0.0476,-0.0504,0,0,0,0,0,-0.0599,-0.0606,-0.059,-0.0601,-0.0598,-0.0585,-0.0584,-0.0577,-0.0568,-0.0566,-0.0553,-0.0542,-0.053,-0.0524,-0.0518,-0.0512,-0.0481,-0.0506,-0.0506,-0.0506,-0.0484,-0.0423,-0.0415,-0.0508,-0.0508,-0.0508,0,0,-0.0614,-0.0607,-0.0614,-0.0607,-0.0602,-0.0596,-0.0584,-0.0589,-0.0579,-0.0565,-0.0556,-0.0547,-0.0532,-0.0521,-0.0518,-0.0514,-0.0471,-0.0507,-0.0507,-0.0484,-0.0423,-0.0413,-0.0405,-0.0508,-0.0508,-0.0508,0,0,-0.0637,-0.0639,-0.0647,-0.0639,-0.0632,-0.062,-0.0623,-0.0608,-0.0599,-0.0595,-0.0574,-0.0548,-0.0553,-0.0513,-0.05,-0.0498,-0.0478,-0.0518,-0.0487,-0.0429,-0.042,-0.0411,-0.0385,-0.0375,-0.0512,-0.0512,-0.0512,0,-0.0656,-0.0654,-0.065,-0.0646,-0.064,-0.063,-0.0628,-0.0617,-0.0603,-0.0585,-0.0597,-0.0551,-0.0536,-0.0485,-0.0482,-0.0492,-0.0476,-0.0486,-0.0426,-0.0417,-0.0408,-0.0383,-0.0371,-0.0511,-0.0511,-0.0511,-0.0511,0,-0.067,-0.0669,-0.0674,-0.0661,-0.0659,-0.066,-0.0639,-0.0633,-0.0626,-0.06,-0.0565,-0.0536,-0.05,-0.0495,-0.0487,-0.042,-0.0437,-0.0436,-0.0418,-0.0397,-0.0374,-0.0361,-0.0511,-0.0511,-0.0511,-0.0511,0,0,-0.07,-0.0687,-0.0689,-0.068,-0.0665,-0.0664,-0.065,-0.0621,-0.0601,-0.0579,-0.0541,-0.0494,-0.0469,-0.045,-0.0429,-0.037,-0.03,-0.038,-0.0377,-0.0342,-0.02,-0.0208,-0.0196,-0.0295,-0.0293,-0.0291,-0.0217,0,-0.0708,-0.0709,-0.0697,-0.0693,-0.0684,-0.0668,-0.0653,-0.0627,-0.0604,-0.0569,-0.0509,-0.0477,-0.0456,-0.0443,-0.0375,-0.0323,-0.0264,-0.0322,-0.0234,-0.0232,-0.023,-0.0179,-0.0282,-0.0207,-0.0204,-0.0202,-0.0201,0,-0.0712,-0.0709,-0.0711,-0.0693,-0.069,-0.0688,-0.0661,-0.0646,-0.0587,-0.0567,-0.0505,-0.0473,-0.0379,-0.0379,-0.0239,-0.0285,-0.0235,-0.0191,-0.0187,-0.0179,-0.0215,-0.0227,-0.0178,-0.0179,-0.0181,-0.0183,-0.0184,0,-0.0716,-0.0714,-0.0718,-0.0713,-0.0693,-0.0692,-0.0687,-0.0643,-0.0627,-0.0562,-0.0543,-0.0437,-0.039,-0.0297,-0.0203,-0.0225,-0.0062,-0.0082,-0.0037,-0.004,-0.0059,-0.0069,0.003,0.003,0.003,0.003,0.003,0,-0.07,-0.0696,-0.0726,-0.0717,-0.0726,-0.071,-0.0703,-0.0679,-0.064,-0.0605,-0.0542,-0.0485,-0.0366,-0.0269,-0.0192,-0.0069,-0.0047,-0.0007,-0.0002,-0.0065,-0.0076,-0.0052,-0.0062,0.0033,0.0032,0.0032,0.0031,0,-0.067,-0.0685,-0.0694,-0.0711,-0.0721,-0.0729,-0.0735,-0.0725,-0.0685,-0.064,-0.0623,-0.0509,-0.0372,-0.026,-0.0102,-0.0054,0.0057,0.0091,0.0008,0.0002,0.0029,0.0018,0.0148,0.0149,0.0149,0.015,0.015,0,-0.0631,-0.0637,-0.0713,-0.0729,-0.0734,-0.0753,-0.0765,-0.0749,-0.0735,-0.0643,-0.0618,-0.0485,-0.0398,-0.0165,-0.0063,0.0087,0.0102,0.0135,0.0104,0.006,0.0051,0.0038,0.0026,0.0151,0.0152,0.0152,0.0152,0,-0.0547,-0.061,-0.0646,-0.0715,-0.0744,-0.0777,-0.079,-0.0785,-0.0746,-0.0719,-0.0573,-0.0451,-0.0296,-0.0137,-0.0021,0.0082,0.0102,0.0142,0.0141,0.0112,0.0065,0.0053,0.004,0.0154,0.0154,0.0154,0.0153,0,-0.0497,-0.0527,-0.061,-0.0664,-0.0735,-0.0769,-0.0788,-0.0753,-0.0731,-0.0635,-0.058,-0.0408,-0.0305,-0.0139,-0.0029,0.0071,0.0083,0.0088,0.009,0.0088,0.0043,-0.0027,0.0065,0,0,0,0,0,-0.04,-0.0434,-0.0522,-0.06,-0.0713,-0.0742,-0.0782,-0.0796,-0.077,-0.0661,-0.0614,-0.046,-0.0256,-0.0163,-0.0058,-0.0055,0.0066,0.0063,0.0063,0.0166,0.0164,0.012,0,0,0,0,0,0,-0.0334,-0.0393,-0.0487,-0.0563,-0.0621,-0.071,-0.0745,-0.0743,-0.0678,-0.0626,-0.0504,-0.0442,-0.0241,-0.0288,-0.0045,-0.0018,-0.0012,0.016,0.0161,0.0168,0.0165,0.0163,0.0117,0,0,0,0,0]}]]